Location: Nashville
(36.1660°N, 86.7840°W)
Time: 19:12:41
(UTC-06:00)

Courier 1B Rocket - Visible Passes

Search period start: 22 January 2022 00:00
Search period end: 01 February 2022 00:00
Orbit: 920 x 1202 km, 28.2° (Epoch: 22 January)

Date Brightness Start Highest point End Pass type
(mag) Time Alt. Az. Time Alt. Az. Time Alt. Az.
22 Jan 6.2 03:53:13 34° SE 03:53:13 34° SE 03:57:21 10° ESE visible
22 Jan 6.0 05:39:34 15° WSW 05:44:15 35° SSW 05:49:53 10° SE visible
23 Jan 7.6 02:55:56 12° ESE 02:55:56 12° ESE 02:56:29 10° ESE visible
23 Jan 5.7 04:42:18 37° SSW 04:43:22 40° S 04:49:16 10° ESE visible
24 Jan 6.4 03:45:01 30° SE 03:45:01 30° SE 03:48:34 10° ESE visible
24 Jan 6.2 05:31:23 17° WSW 05:35:18 30° SSW 05:40:43 10° SE visible
25 Jan 7.7 02:47:46 10° ESE 02:47:46 10° ESE 02:47:46 10° ESE visible
25 Jan 5.8 04:34:07 36° SSW 04:34:27 36° SSW 04:40:17 10° SE visible
25 Jan 6.8 06:22:59 10° WSW 06:27:06 17° SSW 06:31:06 10° SSE visible
26 Jan 6.7 03:36:51 25° SE 03:36:51 25° SE 03:39:41 10° ESE visible
26 Jan 6.4 05:23:13 17° WSW 05:26:19 24° SSW 05:31:19 10° SSE visible
27 Jan 6.1 04:25:59 30° S 04:25:59 30° S 04:31:07 10° SE visible
27 Jan 7.0 06:15:37 10° SW 06:18:01 12° SSW 06:20:22 10° S visible
28 Jan 7.1 03:28:45 19° SE 03:28:45 19° SE 03:30:41 10° SE visible
28 Jan 6.7 05:15:07 16° SW 05:17:16 18° SSW 05:21:31 10° SSE visible
29 Jan 6.6 04:17:55 23° S 04:17:55 23° S 04:21:43 10° SSE visible
30 Jan 7.4 03:20:44 13° SE 03:20:44 13° SE 03:21:30 10° SE visible
30 Jan 7.0 05:07:07 12° SW 05:08:08 13° SSW 05:10:54 10° S visible
31 Jan 7.0 04:09:58 15° S 04:09:58 15° S 04:11:55 10° SSE visible
31 Jan 7.4 19:32:07 10° SSE 19:32:25 10° SSE 19:32:25 10° SSE visible
